Location: Poughquag
(41.6090°N, 73.6820°W)
Time: 01:05:01
(UTC-04:00)

S-56A Canister/Altair - Pass Details

Date: 30 May 2020
Orbit: 633 x 2499 km, 38.9° (Epoch: 06 July)

Event Time Altitude Azimuth Distance (km) Brightness Sun altitude
Rises 13:58:45 0° 272° (W) 5,492 12.1 65.9°
Reaches altitude 10° 14:06:12 10° 244° (WSW) 4,869 12.1 64.9°
Maximum altitude 14:09:54 11° 228° (SW) 4,874 12.2 64.5°
Drops below altitude 10° 14:13:46 10° 213° (SSW) 5,093 12.3 63.9°
Sets 14:22:24 0° 185° (S) 6,155 12.4 62.7°
